Weather in Kochkurovo

Russia / Nizhny Novgorod Oblast'     54°45′30″N   44°59′41″E
temp.,
°C
wind,
m/s
gust,
m/s
humid.,
%
clouds,
%
prec.,
mm/h
press.,
hPa
HPBL,
m
14 may, fri
fri1400:00+14ese229359 0.0 101812
03:00+14sse119399 0.0 101911
06:00+16e1190100 0.0 101949
09:00+19ese2276100 0.0 1018424
12:00+23ssw34625 0.0 10181127
15:00+25ssw455250 0.0 10181560
18:00+23s2268100 0.0 101738
21:00+18se227891 0.0 101717
15 may, sat
sat1500:00+17se3581100 0.0 101670
03:00+16se228688 0.0 101632
06:00+17sse3117895 0.0 1016348
09:00+22s51155100 0.0 1016560
12:00+25s71347100 0.0 1015988
15:00+26s713475 0.0 10151330
18:00+23s4115870 0.0 1015443
21:00+18sse387265 0.0 1015137
16 may, sun
sun1600:00+16sse357433 0.0 101593
03:00+14s227872 0.0 101529
06:00+16ssw237669 0.0 1016114
09:00+21ssw3464100 0.0 1016394
12:00+24s345766 0.0 1016929
15:00+25ssw57484 0.0 10151423
18:00+23ssw386288 0.0 1015311
21:00+17sw237996 0.0 101630
17 may, mon
mon1700:00+16ssw118099 0.0 101611
03:00+15sse1280100 0.0 101711
06:00+17ese227590 0.0 101772
09:00+23se355480 0.0 1017523
12:00+27s46415 0.0 1017950
15:00+28s483715 0.0 10162567
18:00+25sse245457 0.0 101575
21:00+19se226380 0.0 101613
18 may, tue
tue1800:00+18se235969 0.0 101624
03:00+16se2257100 0.0 101523
06:00+18se386447 0.0 1015170
09:00+23sse59455 0.0 1014465
12:00+27sse5839100 0.0 1014817
15:00+27se4640100 0.0 1014894
18:00+24se411555 0.0 1013389
21:00+20se4136846 0.0 1013233